• In Österreich
  • Länderverzeichnis
  • Für 7 Tage
  • Wassertemperatur
  • Satellitenkarten
  • Wetterkarte
  • News
  • Widgets
  • user-avatar
    Anmelden

    Stündliche Wetter Igls

    Heute, 14 August, Dienstag

    Zeit Temperatur Niederschläge Wind Luftdruck Luftfeuchtigkeit
    00:00 +18°C° 1,8 mm 1 m/S 683 mmHg 96%
    01:00 +16°C° 0 mm 2 m/S 683 mmHg 96%
    02:00 +16°C° 0,4 mm 2 m/S 683 mmHg 96%
    03:00 +15°C° 0,4 mm 2 m/S 683 mmHg 96%
    04:00 +15°C° 0,4 mm 2 m/S 683 mmHg 96%
    05:00 +15°C° 0,2 mm 1 m/S 683 mmHg 95%
    06:00 +16°C° 0,2 mm 1 m/S 683 mmHg 94%
    07:00 +17°C° 0 mm 2 m/S 684 mmHg 94%
    08:00 +17°C° 0,5 mm 2 m/S 684 mmHg 90%
    09:00 +19°C° 0,5 mm 1 m/S 684 mmHg 87%
    10:00 +20°C° 0,5 mm 1 m/S 685 mmHg 84%
    11:00 +21°C° 0,7 mm 1 m/S 685 mmHg 82%
    12:00 +20°C° 0,7 mm 2 m/S 685 mmHg 80%
    13:00 +20°C° 0 mm 2 m/S 685 mmHg 79%
    14:00 +20°C° 0,8 mm 2 m/S 685 mmHg 80%
    15:00 +20°C° 0,8 mm 2 m/S 685 mmHg 80%
    16:00 +20°C° 0,8 mm 2 m/S 685 mmHg 81%
    17:00 +19°C° 0,5 mm 2 m/S 685 mmHg 84%
    18:00 +18°C° 0,5 mm 2 m/S 685 mmHg 88%
    19:00 +18°C° 0,5 mm 1 m/S 685 mmHg 92%
    20:00 +16°C° 0,1 mm 1 m/S 686 mmHg 93%
    21:00 +15°C° 0,1 mm 2 m/S 686 mmHg 94%
    22:00 +15°C° 0,1 mm 2 m/S 686 mmHg 96%
    23:00 +14°C° 0 mm 2 m/S 686 mmHg 96%

    Morgen, 15 August, Mittwoch

    Zeit Temperatur Niederschläge Wind Luftdruck Luftfeuchtigkeit
    00:00 +14°C° 0 mm 2 m/S 687 mmHg 95%
    01:00 +13°C° 0 mm 2 m/S 687 mmHg 95%
    02:00 +13°C° 0 mm 2 m/S 687 mmHg 95%
    03:00 +13°C° 0 mm 1 m/S 686 mmHg 95%
    04:00 +12°C° 0 mm 1 m/S 686 mmHg 95%
    05:00 +13°C° 0 mm 1 m/S 687 mmHg 93%
    06:00 +14°C° 0 mm 1 m/S 687 mmHg 91%
    07:00 +15°C° 0 mm 1 m/S 687 mmHg 90%
    08:00 +18°C° 0 mm 1 m/S 688 mmHg 81%
    09:00 +20°C° 0 mm 1 m/S 688 mmHg 72%
    10:00 +22°C° 0 mm 1 m/S 689 mmHg 64%
    11:00 +23°C° 0 mm 2 m/S 689 mmHg 60%
    12:00 +24°C° 0 mm 2 m/S 689 mmHg 56%
    13:00 +25°C° 0 mm 2 m/S 689 mmHg 53%
    14:00 +25°C° 0 mm 2 m/S 688 mmHg 54%
    15:00 +24°C° 0 mm 2 m/S 688 mmHg 56%
    16:00 +24°C° 0 mm 2 m/S 688 mmHg 57%
    17:00 +23°C° 0 mm 2 m/S 688 mmHg 66%
    18:00 +20°C° 0 mm 2 m/S 688 mmHg 75%
    19:00 +19°C° 0 mm 1 m/S 687 mmHg 84%
    20:00 +18°C° 0 mm 1 m/S 688 mmHg 88%
    21:00 +16°C° 0 mm 1 m/S 688 mmHg 92%
    22:00 +15°C° 0 mm 1 m/S 688 mmHg 95%
    23:00 +14°C° 0 mm 1 m/S 688 mmHg 95%

    übermorgen, 16 August, Donnerstag

    Zeit Temperatur Niederschläge Wind Luftdruck Luftfeuchtigkeit
    00:00 +14°C° 0 mm 1 m/S 688 mmHg 95%
    01:00 +13°C° 0 mm 1 m/S 687 mmHg 95%
    02:00 +13°C° 0 mm 1 m/S 687 mmHg 94%
    03:00 +13°C° 0 mm 1 m/S 687 mmHg 94%
    04:00 +13°C° 0 mm 1 m/S 687 mmHg 93%
    05:00 +14°C° 0 mm 1 m/S 687 mmHg 89%
    06:00 +16°C° 0 mm 1 m/S 687 mmHg 85%
    07:00 +18°C° 0 mm 1 m/S 687 mmHg 81%
    08:00 +21°C° 0 mm 1 m/S 688 mmHg 70%
    09:00 +23°C° 0 mm 1 m/S 688 mmHg 59%
    10:00 +25°C° 0 mm 1 m/S 688 mmHg 48%
    11:00 +26°C° 0 mm 1 m/S 688 mmHg 45%
    12:00 +27°C° 0 mm 1 m/S 688 mmHg 43%
    13:00 +28°C° 0 mm 1 m/S 687 mmHg 40%
    14:00 +27°C° 0 mm 1 m/S 687 mmHg 43%
    15:00 +27°C° 0 mm 1 m/S 687 mmHg 46%
    16:00 +27°C° 0 mm 1 m/S 686 mmHg 48%
    17:00 +25°C° 0 mm 1 m/S 686 mmHg 60%
    18:00 +23°C° 0 mm 1 m/S 686 mmHg 71%
    19:00 +21°C° 0 mm 1 m/S 685 mmHg 82%
    20:00 +20°C° 0 mm 1 m/S 685 mmHg 85%
    21:00 +18°C° 0 mm 1 m/S 685 mmHg 88%
    22:00 +16°C° 0 mm 1 m/S 686 mmHg 92%
    23:00 +16°C° 0 mm 1 m/S 685 mmHg 91%

    17 August, Freitag

    Zeit Temperatur Niederschläge Wind Luftdruck Luftfeuchtigkeit
    00:00 +16°C° 0 mm 1 m/S 685 mmHg 91%
    01:00 +16°C° 0 mm 1 m/S 685 mmHg 90%
    02:00 +15°C° 0 mm 1 m/S 685 mmHg 90%
    03:00 +15°C° 0 mm 1 m/S 685 mmHg 90%
    04:00 +15°C° 0 mm 1 m/S 685 mmHg 90%
    05:00 +16°C° 0 mm 1 m/S 685 mmHg 87%
    06:00 +18°C° 0 mm 1 m/S 685 mmHg 84%
    07:00 +20°C° 0 mm 1 m/S 686 mmHg 81%
    08:00 +22°C° 0,1 mm 1 m/S 686 mmHg 73%
    09:00 +24°C° 0,1 mm 1 m/S 686 mmHg 64%
    10:00 +26°C° 0,1 mm 1 m/S 687 mmHg 55%
    11:00 +26°C° 0,5 mm 1 m/S 687 mmHg 55%
    12:00 +26°C° 0,5 mm 1 m/S 686 mmHg 55%
    13:00 +27°C° 0,5 mm 2 m/S 686 mmHg 55%
    14:00 +26°C° 1,7 mm 2 m/S 686 mmHg 64%
    15:00 +24°C° 1,7 mm 2 m/S 686 mmHg 73%
    16:00 +23°C° 1,7 mm 2 m/S 686 mmHg 82%
    17:00 +21°C° 1,9 mm 2 m/S 686 mmHg 86%
    18:00 +20°C° 1,9 mm 2 m/S 686 mmHg 90%
    19:00 +19°C° 1,9 mm 1 m/S 686 mmHg 94%
    20:00 +19°C° 1,4 mm 1 m/S 687 mmHg 95%
    21:00 +18°C° 1,4 mm 1 m/S 687 mmHg 96%
    22:00 +18°C° 1,4 mm 1 m/S 688 mmHg 97%
    23:00 +18°C° 0,4 mm 1 m/S 688 mmHg 97%

    18 August, Samstag

    Zeit Temperatur Niederschläge Wind Luftdruck Luftfeuchtigkeit
    00:00 +16°C° 0,4 mm 1 m/S 688 mmHg 96%
    01:00 +16°C° 0,4 mm 1 m/S 688 mmHg 96%
    02:00 +16°C° 0 mm 1 m/S 687 mmHg 96%
    03:00 +15°C° 0 mm 1 m/S 687 mmHg 96%
    04:00 +15°C° 0 mm 1 m/S 687 mmHg 96%
    05:00 +16°C° 0,1 mm 1 m/S 688 mmHg 95%
    06:00 +16°C° 0,1 mm 1 m/S 688 mmHg 94%
    07:00 +18°C° 0,1 mm 1 m/S 688 mmHg 94%
    08:00 +19°C° 0,1 mm 1 m/S 689 mmHg 88%
    09:00 +21°C° 0,1 mm 1 m/S 689 mmHg 83%
    10:00 +22°C° 0,1 mm 1 m/S 689 mmHg 78%
    11:00 +23°C° 0,2 mm 1 m/S 689 mmHg 74%
    12:00 +24°C° 0,2 mm 1 m/S 689 mmHg 70%
    13:00 +24°C° 0,2 mm 1 m/S 689 mmHg 66%
    14:00 +24°C° 0,4 mm 1 m/S 689 mmHg 69%
    15:00 +24°C° 0,4 mm 2 m/S 689 mmHg 72%
    16:00 +24°C° 0,4 mm 2 m/S 689 mmHg 75%
    17:00 +21°C° 0,6 mm 2 m/S 689 mmHg 81%
    18:00 +21°C° 0,6 mm 1 m/S 689 mmHg 87%
    19:00 +20°C° 0,6 mm 1 m/S 689 mmHg 93%
    20:00 +20°C° 0,3 mm 1 m/S 689 mmHg 94%
    21:00 +19°C° 0,3 mm 1 m/S 690 mmHg 95%
    22:00 +19°C° 0,3 mm 1 m/S 690 mmHg 97%
    23:00 +19°C° 0,1 mm 1 m/S 690 mmHg 97%

    19 August, Sonntag

    Zeit Temperatur Niederschläge Wind Luftdruck Luftfeuchtigkeit
    00:00 +18°C° 0,1 mm 1 m/S 690 mmHg 97%
    01:00 +18°C° 0,1 mm 1 m/S 690 mmHg 97%
    02:00 +18°C° 0 mm 1 m/S 690 mmHg 97%
    03:00 +18°C° 0 mm 1 m/S 690 mmHg 97%
    04:00 +18°C° 0 mm 1 m/S 690 mmHg 97%
    05:00 +18°C° 0 mm 1 m/S 690 mmHg 96%
    06:00 +19°C° 0 mm 1 m/S 690 mmHg 94%
    07:00 +19°C° 0 mm 1 m/S 690 mmHg 93%
    08:00 +20°C° 0 mm 1 m/S 691 mmHg 86%
    09:00 +22°C° 0 mm 1 m/S 691 mmHg 79%
    10:00 +23°C° 0 mm 1 m/S 691 mmHg 73%
    11:00 +24°C° 0,3 mm 1 m/S 691 mmHg 71%
    12:00 +24°C° 0,3 mm 1 m/S 691 mmHg 68%
    13:00 +25°C° 0,3 mm 2 m/S 691 mmHg 66%
    14:00 +25°C° 0,9 mm 2 m/S 690 mmHg 68%
    15:00 +25°C° 0,9 mm 2 m/S 690 mmHg 70%
    16:00 +24°C° 0,9 mm 2 m/S 690 mmHg 73%
    17:00 +23°C° 0,6 mm 2 m/S 690 mmHg 78%
    18:00 +21°C° 0,6 mm 2 m/S 690 mmHg 84%
    19:00 +20°C° 0,6 mm 1 m/S 690 mmHg 90%
    20:00 +20°C° 0,1 mm 1 m/S 690 mmHg 91%
    21:00 +19°C° 0,1 mm 1 m/S 690 mmHg 93%
    22:00 +18°C° 0,1 mm 1 m/S 690 mmHg 95%
    23:00 +18°C° 0 mm 1 m/S 690 mmHg 96%
    Mehr zeigen